This is the latest recevied weather packets stored in our database for station/object XE2RCS-1. If no packets are shown the sender has not sent any weather packets the latest 10 day(s).
| Time | Temp. | Humidity | Pressure | Rain* | Wind** | Luminosity | Snow |
|---|---|---|---|---|---|---|---|
| 1788565132 | 25° C | 58% | 1012 hPa | 0 mm | - | - | - |
| 1788564531 | 26.11° C | 58% | 1014 hPa | 0 mm | - | - | - |
| 1788563931 | 27.22° C | 58% | 1012 hPa | 0 mm | - | - | - |
| 1788563330 | 22.78° C | 98% | 1012 hPa | 0 mm | - | - | - |
| 1788562729 | 23.89° C | 98% | 1012 hPa | 0.51 mm | - | - | - |
| 1788562129 | 25° C | 98% | 1012 hPa | 2.79 mm | - | - | - |
| 1788561528 | 26.11° C | 98% | 1014 hPa | 0.25 mm | - | - | - |
| 1788560927 | 26.11° C | 98% | 1014 hPa | 0.25 mm | - | - | - |
| 1788560327 | 27.22° C | 95% | 1014 hPa | 0.76 mm | - | - | - |
| 1788559726 | 29.44° C | 89% | 1014 hPa | 0 mm | - | - | - |
| 1788559126 | 30° C | 89% | 1012 hPa | 0 mm | - | - | - |
| 1788558525 | 26.11° C | 55% | 1012 hPa | 0 mm | - | - | - |
| 1788557924 | 28.33° C | 43% | 1012 hPa | 0 mm | - | - | - |
| 1788557323 | 28.89° C | 38% | 1014 hPa | 0 mm | - | - | - |
| 1788556723 | 28.89° C | 38% | 1014 hPa | 0 mm | - | - | - |
| 1788556122 | 29.44° C | 37% | 1012 hPa | 0 mm | - | - | - |
| 1788555522 | 29.44° C | 37% | 1012 hPa | 0 mm | - | - | - |
| 1788554921 | 29.44° C | 37% | 1012 hPa | 0 mm | - | - | - |
| 1788554320 | 29.44° C | 37% | 1012 hPa | 0 mm | - | - | - |
| 1788553720 | 29.44° C | 38% | 1015 hPa | 0 mm | - | - | - |
| 1788553119 | 29.44° C | 40% | 1015 hPa | 0 mm | - | - | - |
| 1788552518 | 29.44° C | 47% | 1015 hPa | 0 mm | - | - | - |
| 1788551918 | 29.44° C | 39% | 1013 hPa | 0 mm | - | - | - |
| 1788551325 | 30° C | 50% | 1013 hPa | 0 mm | - | - | - |
| 1788550716 | 30° C | 50% | 1013 hPa | 0 mm | - | - | - |
* Rain latest hour (hover to see other rain measurements)
** Current wind speed in m/s (hover to see current wind gust speed)